Flag for Germany Weather past 2 weeks in Peine, Lower Saxony, Germany

Now
61 °F

Clear.


Feels Like: 61 °F
Forecast: 57 / 74 °F
Wind: 7 mph from Southeast

Location: Braunschweig

Current Time: Sep 19, 2014 at 1:54:03 AM

Latest Report: Sep 18, 2014 at 9:50 PM


Visibility: 10 mi

Pressure: 29.92 "Hg

Humidity: 94%

Dew point: 59 °F

Location of PeineLocation

Historic Weather in Peine — Graph

°F

Peine temperature yesterday

Maximum temperature yesterday: 75 °F (at 3:50 PM)
Minimum temperature yesterday: 55 °F (at 6:50 AM)
Average temperature yesterday: 67 °F

Past Weeks' High & Low Weather Summary

 TemperatureHumidityPressure
High79 °F (Sep 6, 2:50 PM)100% (Sep 4, 6:50 AM)30.24 "Hg (Sep 4, 6:50 AM)
Low50 °F (Sep 9, 6:50 AM)47% (Sep 17, 3:50 PM)29.86 "Hg (Sep 6, 7:20 PM)
Average64 °F81%30.04 "Hg
* Reported Sep 3 9:20 PM — Sep 18 9:50 PM, Peine, Weather by CustomWeather, © 2014

Note: Actual official high and low records may vary slightly from our data, if they occured in-between our weather recording intervals... More about our weather records

Advertising

Peine weather history for previous 24 hours

 ConditionsComfort  
Time TempWeatherWind HumidityBarometerVisibility
9:50 PM
Sep 18
61 °FClear.7 mph94%29.92 "Hg10 mi
9:20 PM63 °FClear.8 mph88%29.92 "Hg10 mi
8:50 PM64 °FClear.9 mph83%29.92 "Hg10 mi
8:20 PM66 °FPassing clouds.8 mph78%29.92 "HgN/A
7:50 PM68 °FBroken clouds.7 mph73%29.89 "HgN/A
7:20 PM70 °FSunny.7 mph69%29.92 "Hg10 mi
6:50 PM70 °FSunny.7 mph69%29.92 "Hg10 mi
6:20 PM72 °FSunny.9 mph61%29.92 "Hg10 mi
5:50 PM73 °FPassing clouds.9 mph57%29.89 "HgN/A
5:20 PM75 °FSunny.9 mph57%29.89 "Hg10 mi
4:50 PM75 °FSunny.10 mph54%29.89 "Hg10 mi
4:20 PM75 °FSunny.9 mph54%29.89 "Hg10 mi
3:50 PM75 °FPassing clouds.9 mph54%29.89 "HgN/A
3:20 PM73 °FPassing clouds.9 mph57%29.89 "HgN/A
2:50 PM73 °FSunny.10 mph57%29.89 "Hg10 mi
2:20 PM72 °FPassing clouds.9 mph61%29.89 "HgN/A
1:50 PM72 °FSunny.10 mph65%29.92 "Hg10 mi
1:20 PM72 °FPassing clouds.9 mph61%29.92 "HgN/A
12:50 PM72 °FPassing clouds.9 mph65%29.92 "HgN/A
12:20 PM70 °FPassing clouds.9 mph69%29.92 "HgN/A
11:50 AM68 °FSunny.8 mph69%29.92 "Hg10 mi
11:20 AM66 °FSunny.7 mph73%29.92 "Hg10 mi
10:50 AM66 °FPassing clouds.7 mph78%29.92 "HgN/A
10:20 AM63 °FPassing clouds.8 mph88%29.92 "HgN/A
9:50 AM63 °FSunny.7 mph88%29.92 "Hg10 mi
9:20 AM61 °FSunny.8 mph94%29.92 "Hg10 mi
8:50 AM59 °FSunny.8 mph100%29.92 "Hg10 mi
8:20 AM57 °FClear.5 mph100%29.92 "Hg4 mi
7:50 AM55 °FClear.5 mph100%29.92 "Hg4 mi
7:20 AM55 °FClear.6 mph100%29.92 "Hg4 mi
6:50 AM55 °FClear.6 mph100%29.92 "Hg4 mi
Weather by CustomWeather, © 2014

See weather overviewHow to use our weather pages